Tracking 22130 objects as of 21-Jan-2021
HD Live streaming from Space Station
objects crossing your sky now

BOBCAT-1

Track BOBCAT-1 now!
10-day predictions
BOBCAT-1 is classified as:


NORAD ID: 46921
Int'l Code: 1998-067RR
Perigee: 418.5 km
Apogee: 420.1 km
Inclination: 51.6 °
Period: 92.8 minutes
Semi major axis: 6790 km
RCS: Unknown
Launch date: November 20, 1998
Source: United States (US)
Launch site: TYURATAM MISSILE AND SPACE COMPLEX (TTMTR)

Uplink (MHz):
Downlink (MHz): 436.600
Beacon (MHz):
Mode: 9k6/38k4/57k6 GMSK
Call sign: BOBCAT-1
Status: Active

aabbcc
Your satellite tracking list
Your tracking list is empty




NASA's NSSDC Master Catalog

Two Line Element Set (TLE):
1 46921U 98067RR  21020.90312965  .00007224  00000-0  12730-3 0  9993
2 46921  51.6440 350.2456 0001158 234.0957 125.9925 15.51560334 11934
Source of the keplerian elements: AFSPC